Athol, MA

8:54 PM EST on February 25, 2017 (GMT -0500)
Orange Municipal

Weather History for KORE - September, 2013

Change the Weather History Date:

Sunday, September 1, 2013

  Actual Average Record
Temperature  
Mean Temperature 72 °F -  
Max Temperature 79 °F 75 °F 93 °F (2010)
Min Temperature 66 °F 51 °F 44 °F (2002)
Cooling Degree Days 8    
Growing Degree Days 22 (Base 50)    
Moisture  
Dew Point 70 °F    
Average Humidity 88    
Maximum Humidity 100    
Minimum Humidity 74    
Precipitation  
Precipitation 0.45 in - - ()
Sea Level Pressure  
Sea Level Pressure 29.85 in    
Wind  
Wind Speed 4 mph (South)    
Max Wind Speed 15 mph    
Max Gust Speed 28 mph    
Visibility 8 miles    
Events Rain , Thunderstorm    
Averages and records for this station are not official NWS values.
T = Trace of Precipitation, MM = Missing Value Source: NWS Daily Summary

Daily Weather History Graph

Daily Weather History Graph

Search for Another Location

Airport or City:

Trip Planner

Search our weather history database for the weather conditions in past years. The results will help you decide how hot, cold, wet, or windy it might be!

Date:

Astronomy

Sep. 01, 2013 Rise Set
Actual Time 6:14 AM EDT 7:23 PM EDT
Civil Twilight 5:45 AM EDT 7:51 PM EDT
Nautical Twilight 5:10 AM EDT 8:26 PM EDT
Astronomical Twilight 4:34 AM EDT 9:02 PM EDT
Moon 2:30 AM EDT (9/1) 5:01 PM EDT (9/1)
Length of Visible Light 14h 06m
Length of Day
13h 08m
Waning Crescent, 14% of the Moon is Illuminated
Sep 1
Waning Crescent
Sep 5
New
Sep 12
First Quarter
Sep 19
Full
Sep 26
Last Quarter

Hourly Weather History & Observations

Time (EDT) Temp. Dew Point Humidity Pressure Visibility Wind Dir Wind Speed Gust Speed Precip Events Conditions
12:31 AM 73.4 °F 71.6 °F 94% 29.84 in 6.0 mi SSW 4.6 mph - 0.00 in   Mostly Cloudy
12:52 AM 73.0 °F 71.1 °F 93% 29.82 in 5.0 mi Calm Calm - 0.00 in   Mostly Cloudy
1:26 AM 73.4 °F 71.6 °F 94% 29.82 in 5.0 mi South 3.5 mph - 0.00 in   Overcast
1:35 AM 73.4 °F 71.6 °F 94% 29.82 in 5.0 mi SSE 3.5 mph - 0.00 in   Overcast
1:52 AM 73.0 °F 71.1 °F 93% 29.82 in 5.0 mi South 5.8 mph - 0.00 in   Overcast
2:05 AM 73.4 °F 71.6 °F 94% 29.83 in 5.0 mi SSW 4.6 mph - N/A Thunderstorm Overcast
2:21 AM 73.4 °F 71.6 °F 94% 29.83 in 6.0 mi South 5.8 mph - N/A Thunderstorm Overcast
2:34 AM 73.4 °F 71.6 °F 94% 29.83 in 7.0 mi South 8.1 mph - N/A Thunderstorm Overcast
2:52 AM 70.0 °F 66.0 °F 87% 29.84 in 3.0 mi SW 15.0 mph 27.6 mph 0.07 in Rain , Thunderstorm Heavy Thunderstorms and Rain
3:00 AM 69.8 °F 64.4 °F 83% 29.85 in 2.0 mi South 11.5 mph 19.6 mph 0.09 in Rain , Thunderstorm Heavy Thunderstorms and Rain
3:19 AM 68.0 °F 66.2 °F 94% 29.84 in 4.0 mi South 5.8 mph - 0.21 in Rain , Thunderstorm Thunderstorms and Rain
3:52 AM 68.0 °F 66.0 °F 93% 29.84 in 4.0 mi Calm Calm - 0.33 in Rain , Thunderstorm Thunderstorms and Rain
4:17 AM 68.0 °F 66.2 °F 94% 29.84 in 6.0 mi ESE 4.6 mph - 0.05 in Rain Light Rain
4:52 AM 68.0 °F 66.9 °F 96% 29.82 in 10.0 mi NW 3.5 mph - 0.05 in Rain Light Rain
5:45 AM 66.2 °F 66.2 °F 100% 29.83 in 6.0 mi NW 4.6 mph - 0.00 in   Scattered Clouds
5:52 AM 66.9 °F 66.9 °F 100% 29.83 in 5.0 mi Calm Calm - 0.00 in   Scattered Clouds
6:52 AM 68.0 °F 66.9 °F 96% 29.85 in 6.0 mi Calm Calm - N/A   Mostly Cloudy
7:04 AM 68.0 °F 66.2 °F 94% 29.87 in 6.0 mi Calm Calm - N/A   Mostly Cloudy
7:15 AM 68.0 °F 66.2 °F 94% 29.87 in 5.0 mi Calm Calm - N/A   Overcast
7:52 AM 68.0 °F 66.9 °F 96% 29.87 in 10.0 mi Calm Calm - N/A   Mostly Cloudy
8:17 AM 69.8 °F 66.2 °F 88% 29.87 in 10.0 mi Calm Calm - N/A   Mostly Cloudy
8:32 AM 69.8 °F 68.0 °F 94% 29.87 in 10.0 mi Calm Calm - N/A   Overcast
8:52 AM 70.0 °F 68.0 °F 93% 29.87 in 10.0 mi Calm Calm - N/A   Overcast
9:52 AM 73.0 °F 69.1 °F 87% 29.87 in 10.0 mi South 4.6 mph - N/A   Overcast
10:30 AM 73.4 °F 69.8 °F 88% 29.89 in 10.0 mi Calm Calm - N/A   Overcast
10:38 AM 73.4 °F 69.8 °F 88% 29.89 in 10.0 mi Calm Calm - N/A   Overcast
10:45 AM 73.4 °F 69.8 °F 88% 29.89 in 10.0 mi East 3.5 mph - N/A   Overcast
10:52 AM 75.0 °F 70.0 °F 84% 29.88 in 10.0 mi Calm Calm - N/A   Overcast
11:09 AM 75.2 °F 69.8 °F 83% 29.89 in 10.0 mi Calm Calm - N/A   Overcast
11:16 AM 75.2 °F 69.8 °F 83% 29.89 in 10.0 mi NE 3.5 mph - N/A   Overcast
11:52 AM 75.0 °F 70.0 °F 84% 29.88 in 9.0 mi SSW 4.6 mph - N/A   Overcast
12:13 PM 75.2 °F 69.8 °F 83% 29.87 in 10.0 mi South 3.5 mph - N/A   Mostly Cloudy
12:20 PM 77.0 °F 69.8 °F 78% 29.87 in 10.0 mi Calm Calm - N/A   Scattered Clouds
12:44 PM 78.8 °F 69.8 °F 74% 29.86 in 10.0 mi South 5.8 mph - N/A   Mostly Cloudy
12:52 PM 78.1 °F 70.0 °F 76% 29.85 in 10.0 mi South 5.8 mph - N/A   Mostly Cloudy
1:11 PM 78.8 °F 69.8 °F 74% 29.86 in 10.0 mi SSW 8.1 mph - N/A   Scattered Clouds
1:29 PM 78.8 °F 71.6 °F 78% 29.86 in 10.0 mi South 9.2 mph - N/A   Mostly Cloudy
1:52 PM 79.0 °F 70.0 °F 74% 29.85 in 10.0 mi South 6.9 mph - N/A   Mostly Cloudy
2:34 PM 78.8 °F 71.6 °F 78% 29.86 in 10.0 mi South 9.2 mph - N/A   Scattered Clouds
2:52 PM 78.1 °F 71.1 °F 79% 29.85 in 10.0 mi South 10.4 mph - N/A   Partly Cloudy
3:52 PM 78.1 °F 71.1 °F 79% 29.83 in 10.0 mi South 9.2 mph - N/A   Partly Cloudy
4:52 PM 78.1 °F 72.0 °F 81% 29.84 in 10.0 mi SSE 5.8 mph - N/A   Partly Cloudy
5:10 PM 77.0 °F 71.6 °F 83% 29.85 in 10.0 mi South 4.6 mph - N/A   Mostly Cloudy
5:45 PM 77.0 °F 71.6 °F 83% 29.86 in 10.0 mi South 3.5 mph - N/A   Mostly Cloudy
5:52 PM 77.0 °F 71.1 °F 82% 29.85 in 10.0 mi South 4.6 mph - N/A   Mostly Cloudy
6:52 PM 75.9 °F 71.1 °F 85% 29.83 in 10.0 mi Variable 3.5 mph - N/A   Scattered Clouds
7:21 PM 75.2 °F 71.6 °F 89% 29.85 in 8.0 mi Calm Calm - N/A Thunderstorm Clear
7:36 PM 73.4 °F 71.6 °F 94% 29.85 in 7.0 mi Calm Calm - N/A   Partly Cloudy
7:52 PM 75.0 °F 72.0 °F 90% 29.85 in 8.0 mi Calm Calm - N/A Thunderstorm Scattered Clouds
8:19 PM 73.4 °F 71.6 °F 94% 29.86 in 8.0 mi South 3.5 mph - N/A   Mostly Cloudy
8:52 PM 73.0 °F 70.0 °F 90% 29.86 in 10.0 mi Calm Calm - N/A   Mostly Cloudy
9:26 PM 73.4 °F 69.8 °F 88% 29.86 in 10.0 mi Calm Calm - N/A   Overcast
9:45 PM 71.6 °F 69.8 °F 94% 29.86 in 8.0 mi SW 3.5 mph - N/A   Overcast
9:52 PM 72.0 °F 70.0 °F 93% 29.86 in 8.0 mi SW 3.5 mph - N/A   Overcast
10:05 PM 71.6 °F 69.8 °F 94% 29.86 in 8.0 mi South 3.5 mph - N/A   Overcast
10:18 PM 71.6 °F 69.8 °F 94% 29.87 in 8.0 mi Calm Calm - N/A   Overcast
10:52 PM 73.0 °F 71.1 °F 93% 29.86 in 8.0 mi South 4.6 mph - N/A   Overcast
11:52 PM 73.0 °F 71.1 °F 93% 29.85 in 8.0 mi Calm Calm - N/A   Overcast